Location: Kennington
(51.1500°N, 0.8833°E)
Time: 11:18:23
(UTC+00:00)

SL-16 R/B - Pass Details

Date: 21 September 2020
Orbit: 985 x 1007 km, 99.5° (Epoch: 30 October)

Event Time Altitude Azimuth Distance (km) Brightness Sun altitude
Exits shadow 01:15:10 52° 1° (N) 1,222 3.1 -35.2°
Drops below altitude 10° 01:19:45 10° 346° (NNW) 2,757 5.3 -34.8°
Sets 01:22:14 0° 345° (NNW) 3,708 6.1 -34.7°
